Location: Calvatone
(45.1167°N, 10.4333°E)
Time: 21:50:21
(UTC+00:00)

PCSat - Pass Details

Date: 12 December 2023
Orbit: 784 x 792 km, 67.0° (Epoch: 03 March)

Event Time Altitude Azimuth Distance (km) Brightness Sun altitude
Exits shadow 03:53:39 11° 7° (N) 2,313 12.0 -29.6°
Drops below altitude 10° 03:53:50 10° 8° (N) 2,360 12.1 -29.6°
Sets 03:56:56 0° 26° (NNE) 3,294 13.0 -29.0°
